Time,TemperatureF,DewpointF,PressureIn,WindDirection,WindDirectionDegrees,WindSpeedMPH,WindSpeedGustMPH,Humidity,HourlyPrecipIn,Conditions,Clouds,dailyrainin,SoftwareType,DateUTC
2013-03-06 00:02:00,30.0,16.0,30.41,East,96,0.0,0.0,55,0.00,,,0.00,,2013-03-06 06:02:00,
2013-03-06 00:11:00,30.0,16.0,30.41,East,96,0.0,0.0,55,0.00,,,0.00,,2013-03-06 06:11:00,
2013-03-06 00:22:00,30.0,17.0,30.41,East,96,0.0,0.0,57,0.00,,,0.00,,2013-03-06 06:22:00,
2013-03-06 00:32:00,29.0,16.0,30.41,East,96,0.0,0.0,59,0.00,,,0.00,,2013-03-06 06:32:00,
2013-03-06 00:42:00,29.0,16.0,30.41,East,96,0.0,0.0,59,0.00,,,0.00,,2013-03-06 06:42:00,
2013-03-06 00:52:00,28.0,16.0,30.41,East,96,0.0,0.0,61,0.00,,,0.00,,2013-03-06 06:52:00,
2013-03-06 01:01:00,27.0,15.0,30.41,East,96,0.0,0.0,61,0.00,,,0.00,,2013-03-06 07:01:00,
2013-03-06 01:11:00,27.0,15.0,30.41,East,96,0.0,0.0,61,0.00,,,0.00,,2013-03-06 07:11:00,
2013-03-06 01:22:00,27.0,15.0,30.41,East,96,0.0,0.0,61,0.00,,,0.00,,2013-03-06 07:22:00,
2013-03-06 01:32:00,26.0,15.0,30.41,East,96,0.0,0.0,63,0.00,,,0.00,,2013-03-06 07:32:00,
2013-03-06 01:42:00,26.0,15.0,30.41,East,96,0.0,0.0,63,0.00,,,0.00,,2013-03-06 07:42:00,
2013-03-06 01:52:00,25.0,15.0,30.42,East,96,0.0,0.0,64,0.00,,,0.00,,2013-03-06 07:52:00,
2013-03-06 02:01:00,24.0,15.0,30.41,WSW,246,3.0,3.0,68,0.00,,,0.00,,2013-03-06 08:01:00,
2013-03-06 02:11:00,24.0,15.0,30.41,WSW,246,3.0,3.0,68,0.00,,,0.00,,2013-03-06 08:11:00,
2013-03-06 02:21:00,24.0,15.0,30.41,SW,236,0.0,0.0,67,0.00,,,0.00,,2013-03-06 08:21:00,
2013-03-06 02:32:00,25.0,16.0,30.41,SW,236,0.0,0.0,67,0.00,,,0.00,,2013-03-06 08:32:00,
2013-03-06 02:42:00,25.0,16.0,30.41,SW,236,0.0,0.0,67,0.00,,,0.00,,2013-03-06 08:42:00,
2013-03-06 02:52:00,24.0,15.0,30.41,SSW,195,0.0,0.0,68,0.00,,,0.00,,2013-03-06 08:52:00,
2013-03-06 03:01:00,24.0,15.0,30.41,SSW,195,0.0,0.0,68,0.00,,,0.00,,2013-03-06 09:01:00,
2013-03-06 03:12:00,24.0,15.0,30.41,SSW,195,0.0,0.0,68,0.00,,,0.00,,2013-03-06 09:12:00,
2013-03-06 03:21:00,24.0,15.0,30.41,SSW,195,0.0,0.0,68,0.00,,,0.00,,2013-03-06 09:21:00,
2013-03-06 03:31:00,24.0,15.0,30.41,SSW,195,0.0,0.0,69,0.00,,,0.00,,2013-03-06 09:31:00,
2013-03-06 03:42:00,24.0,15.0,30.41,SSW,195,0.0,0.0,69,0.00,,,0.00,,2013-03-06 09:42:00,
2013-03-06 03:52:00,24.0,15.0,30.41,SSW,195,0.0,0.0,69,0.00,,,0.00,,2013-03-06 09:52:00,
2013-03-06 04:01:00,24.0,16.0,30.41,SSW,195,0.0,0.0,70,0.00,,,0.00,,2013-03-06 10:01:00,
2013-03-06 04:11:00,24.0,16.0,30.41,SSW,195,0.0,0.0,70,0.00,,,0.00,,2013-03-06 10:11:00,
2013-03-06 04:21:00,24.0,16.0,30.41,SSW,195,0.0,0.0,70,0.00,,,0.00,,2013-03-06 10:21:00,
2013-03-06 04:31:00,24.0,16.0,30.41,SSW,195,0.0,0.0,71,0.00,,,0.00,,2013-03-06 10:31:00,
2013-03-06 04:42:00,24.0,16.0,30.41,SSW,195,0.0,0.0,71,0.00,,,0.00,,2013-03-06 10:42:00,
2013-03-06 04:52:00,25.0,16.0,30.41,SSW,195,0.0,0.0,69,0.00,,,0.00,,2013-03-06 10:52:00,
2013-03-06 05:02:00,25.0,16.0,30.41,SSW,195,0.0,0.0,68,0.00,,,0.00,,2013-03-06 11:02:00,
2013-03-06 05:11:00,25.0,16.0,30.41,SSW,195,0.0,0.0,68,0.00,,,0.00,,2013-03-06 11:11:00,
2013-03-06 05:22:00,25.0,16.0,30.42,SSW,195,0.0,0.0,68,0.00,,,0.00,,2013-03-06 11:22:00,
2013-03-06 05:32:00,24.0,15.0,30.43,SSW,195,0.0,0.0,68,0.00,,,0.00,,2013-03-06 11:32:00,
2013-03-06 05:42:00,24.0,15.0,30.43,SSW,195,0.0,0.0,68,0.00,,,0.00,,2013-03-06 11:42:00,
2013-03-06 05:52:00,23.0,14.0,30.43,SSW,195,0.0,0.0,69,0.00,,,0.00,,2013-03-06 11:52:00,
2013-03-06 06:02:00,23.0,14.0,30.42,SSW,195,0.0,0.0,69,0.00,,,0.00,,2013-03-06 12:02:00,
2013-03-06 06:11:00,23.0,14.0,30.42,SSW,195,0.0,0.0,69,0.00,,,0.00,,2013-03-06 12:11:00,
2013-03-06 06:21:00,23.0,15.0,30.43,SSW,195,0.0,0.0,70,0.00,,,0.00,,2013-03-06 12:21:00,
2013-03-06 06:32:00,22.0,14.0,30.43,SSW,195,0.0,0.0,71,0.00,,,0.00,,2013-03-06 12:32:00,
2013-03-06 06:42:00,22.0,14.0,30.43,SSW,195,0.0,0.0,71,0.00,,,0.00,,2013-03-06 12:42:00,
2013-03-06 06:52:00,22.0,14.0,30.44,SSW,195,0.0,0.0,71,0.00,,,0.00,,2013-03-06 12:52:00,
2013-03-06 07:02:00,22.0,15.0,30.45,SSW,195,0.0,0.0,75,0.00,,,0.00,,2013-03-06 13:02:00,
2013-03-06 07:11:00,22.0,15.0,30.45,SSW,195,0.0,0.0,75,0.00,,,0.00,,2013-03-06 13:11:00,
2013-03-06 07:22:00,23.0,17.0,30.44,SSW,195,0.0,0.0,76,0.00,,,0.00,,2013-03-06 13:22:00,
2013-03-06 07:32:00,24.0,18.0,30.45,SSW,195,0.0,0.0,77,0.00,,,0.00,,2013-03-06 13:32:00,
2013-03-06 07:42:00,24.0,18.0,30.45,SSW,195,0.0,0.0,77,0.00,,,0.00,,2013-03-06 13:42:00,
2013-03-06 07:52:00,25.0,19.0,30.45,SSW,195,0.0,0.0,77,0.00,,,0.00,,2013-03-06 13:52:00,
2013-03-06 08:01:00,27.0,20.0,30.44,SSW,195,0.0,0.0,76,0.00,,,0.00,,2013-03-06 14:01:00,
2013-03-06 08:11:00,27.0,20.0,30.44,SSW,195,0.0,0.0,76,0.00,,,0.00,,2013-03-06 14:11:00,
2013-03-06 08:22:00,29.0,21.0,30.45,SSW,195,0.0,0.0,72,0.00,,,0.00,,2013-03-06 14:22:00,
2013-03-06 08:32:00,32.0,23.0,30.46,SSW,195,0.0,0.0,70,0.00,,,0.00,,2013-03-06 14:32:00,
2013-03-06 08:42:00,32.0,23.0,30.46,SSW,195,0.0,0.0,70,0.00,,,0.00,,2013-03-06 14:42:00,
2013-03-06 08:52:00,36.0,26.0,30.47,SSW,195,0.0,0.0,67,0.00,,,0.00,,2013-03-06 14:52:00,
2013-03-06 09:02:00,42.0,29.0,30.47,SSW,195,0.0,0.0,59,0.00,,,0.00,,2013-03-06 15:02:00,
2013-03-06 09:11:00,42.0,29.0,30.47,SSW,195,0.0,0.0,59,0.00,,,0.00,,2013-03-06 15:11:00,
2013-03-06 09:21:00,46.0,28.0,30.46,East,96,5.0,5.0,50,0.00,,,0.00,,2013-03-06 15:21:00,
2013-03-06 09:32:00,46.0,27.0,30.46,ESE,108,9.0,10.0,48,0.00,,,0.00,,2013-03-06 15:32:00,
2013-03-06 09:42:00,46.0,27.0,30.46,ESE,108,9.0,10.0,48,0.00,,,0.00,,2013-03-06 15:42:00,
2013-03-06 09:52:00,47.0,28.0,30.46,East,94,8.0,11.0,47,0.00,,,0.00,,2013-03-06 15:52:00,
2013-03-06 10:01:00,49.0,27.0,30.46,ESE,118,12.0,12.0,42,0.00,,,0.00,,2013-03-06 16:01:00,
2013-03-06 10:11:00,49.0,27.0,30.46,ESE,118,12.0,12.0,42,0.00,,,0.00,,2013-03-06 16:11:00,
2013-03-06 10:21:00,52.0,27.0,30.44,ENE,63,13.0,13.0,38,0.00,,,0.00,,2013-03-06 16:21:00,
2013-03-06 10:32:00,54.0,28.0,30.44,ESE,111,9.0,14.0,36,0.00,,,0.00,,2013-03-06 16:32:00,
2013-03-06 10:42:00,54.0,28.0,30.44,ESE,111,9.0,14.0,36,0.00,,,0.00,,2013-03-06 16:42:00,
2013-03-06 10:52:00,54.0,27.0,30.44,SE,131,11.0,11.0,35,0.00,,,0.00,,2013-03-06 16:52:00,
2013-03-06 11:01:00,55.0,27.0,30.44,ESE,121,9.0,10.0,34,0.00,,,0.00,,2013-03-06 17:01:00,
2013-03-06 11:11:00,55.0,27.0,30.44,ESE,121,9.0,10.0,34,0.00,,,0.00,,2013-03-06 17:11:00,
2013-03-06 11:21:00,55.0,26.0,30.42,East,93,11.0,11.0,32,0.00,,,0.00,,2013-03-06 17:21:00,
2013-03-06 11:32:00,58.0,27.0,30.41,SE,135,12.0,12.0,30,0.00,,,0.00,,2013-03-06 17:32:00,
2013-03-06 11:42:00,58.0,27.0,30.41,SE,135,12.0,12.0,30,0.00,,,0.00,,2013-03-06 17:42:00,
2013-03-06 11:52:00,58.0,26.0,30.40,SE,138,11.0,12.0,29,0.00,,,0.00,,2013-03-06 17:52:00,
2013-03-06 12:02:00,59.0,25.0,30.38,ESE,113,14.0,14.0,27,0.00,,,0.00,,2013-03-06 18:02:00,
2013-03-06 12:28:00,60.0,26.0,30.36,ENE,73,12.0,12.0,27,0.00,,,0.00,,2013-03-06 18:28:00,
2013-03-06 12:42:00,61.0,26.0,30.34,ESE,105,14.0,14.0,26,0.00,,,0.00,,2013-03-06 18:42:00,
2013-03-06 12:52:00,62.0,26.0,30.32,ESE,120,14.0,14.0,25,0.00,,,0.00,,2013-03-06 18:52:00,
2013-03-06 13:02:00,63.0,26.0,30.30,SSE,150,14.0,16.0,24,0.00,,,0.00,,2013-03-06 19:02:00,
2013-03-06 13:11:00,63.0,26.0,30.30,SSE,150,14.0,16.0,24,0.00,,,0.00,,2013-03-06 19:11:00,
2013-03-06 13:21:00,65.0,25.0,30.29,ESE,118,11.0,16.0,22,0.00,,,0.00,,2013-03-06 19:21:00,
2013-03-06 13:32:00,67.0,26.0,30.29,ESE,113,11.0,11.0,21,0.00,,,0.00,,2013-03-06 19:32:00,
2013-03-06 13:43:00,67.0,26.0,30.29,ESE,113,11.0,11.0,21,0.00,,,0.00,,2013-03-06 19:43:00,
2013-03-06 13:53:00,68.0,27.0,30.29,SE,134,10.0,10.0,21,0.00,,,0.00,,2013-03-06 19:53:00,
2013-03-06 14:01:00,67.0,26.0,30.27,SSE,163,7.0,7.0,21,0.00,,,0.00,,2013-03-06 20:01:00,
2013-03-06 14:11:00,67.0,26.0,30.27,SSE,163,7.0,7.0,21,0.00,,,0.00,,2013-03-06 20:11:00,
2013-03-06 14:22:00,69.0,27.0,30.25,SSE,149,8.0,11.0,21,0.00,,,0.00,,2013-03-06 20:22:00,
2013-03-06 14:32:00,71.0,28.0,30.24,SE,127,6.0,11.0,20,0.00,,,0.00,,2013-03-06 20:32:00,
2013-03-06 14:42:00,71.0,28.0,30.24,SE,127,6.0,11.0,20,0.00,,,0.00,,2013-03-06 20:42:00,
2013-03-06 14:53:00,70.0,28.0,30.23,SSE,152,6.0,6.0,21,0.00,,,0.00,,2013-03-06 20:53:00,
2013-03-06 15:02:00,71.0,29.0,30.22,SE,145,9.0,9.0,21,0.00,,,0.00,,2013-03-06 21:02:00,
2013-03-06 15:11:00,71.0,29.0,30.22,SE,145,9.0,9.0,21,0.00,,,0.00,,2013-03-06 21:11:00,
2013-03-06 15:22:00,71.0,28.0,30.21,SE,127,8.0,8.0,20,0.00,,,0.00,,2013-03-06 21:22:00,
2013-03-06 15:32:00,72.0,27.0,30.20,SE,125,7.0,9.0,19,0.00,,,0.00,,2013-03-06 21:32:00,
2013-03-06 15:42:00,72.0,27.0,30.20,SE,125,7.0,9.0,19,0.00,,,0.00,,2013-03-06 21:42:00,
2013-03-06 15:52:00,70.0,27.0,30.18,SSE,153,10.0,10.0,20,0.00,,,0.00,,2013-03-06 21:52:00,
2013-03-06 16:01:00,69.0,26.0,30.18,SSE,150,8.0,10.0,20,0.00,,,0.00,,2013-03-06 22:01:00,
2013-03-06 16:11:00,69.0,26.0,30.18,SSE,150,8.0,10.0,20,0.00,,,0.00,,2013-03-06 22:11:00,
2013-03-06 16:21:00,69.0,27.0,30.17,ESE,122,6.0,10.0,21,0.00,,,0.00,,2013-03-06 22:21:00,
2013-03-06 16:32:00,69.0,27.0,30.16,SSE,159,11.0,11.0,21,0.00,,,0.00,,2013-03-06 22:32:00,
2013-03-06 16:41:00,69.0,27.0,30.16,SSE,159,11.0,11.0,21,0.00,,,0.00,,2013-03-06 22:41:00,
2013-03-06 16:52:00,69.0,29.0,30.16,South,177,9.0,10.0,22,0.00,,,0.00,,2013-03-06 22:52:00,
2013-03-06 17:01:00,68.0,28.0,30.16,SSE,156,9.0,10.0,22,0.00,,,0.00,,2013-03-06 23:01:00,
2013-03-06 17:11:00,68.0,28.0,30.16,SSE,156,9.0,10.0,22,0.00,,,0.00,,2013-03-06 23:11:00,
2013-03-06 17:21:00,68.0,29.0,30.16,SSE,155,10.0,10.0,23,0.00,,,0.00,,2013-03-06 23:21:00,
2013-03-06 17:32:00,67.0,28.0,30.15,SSE,163,6.0,6.0,23,0.00,,,0.00,,2013-03-06 23:32:00,
2013-03-06 17:42:00,65.0,27.0,30.15,SSE,149,7.0,9.0,24,0.00,,,0.00,,2013-03-06 23:42:00,
2013-03-06 17:52:00,65.0,27.0,30.15,SSE,149,7.0,9.0,24,0.00,,,0.00,,2013-03-06 23:52:00,
2013-03-06 18:01:00,65.0,27.0,30.15,ESE,120,7.0,8.0,24,0.00,,,0.00,,2013-03-07 00:01:00,
2013-03-06 18:11:00,65.0,27.0,30.15,ESE,120,7.0,8.0,24,0.00,,,0.00,,2013-03-07 00:11:00,
2013-03-06 18:21:00,63.0,27.0,30.14,ESE,121,6.0,7.0,25,0.00,,,0.00,,2013-03-07 00:21:00,
2013-03-06 18:32:00,61.0,27.0,30.14,SE,143,8.0,8.0,27,0.00,,,0.00,,2013-03-07 00:32:00,
2013-03-06 18:41:00,61.0,27.0,30.14,SE,143,8.0,8.0,27,0.00,,,0.00,,2013-03-07 00:41:00,
2013-03-06 18:52:00,59.0,27.0,30.14,East,98,8.0,8.0,29,0.00,,,0.00,,2013-03-07 00:52:00,
2013-03-06 19:01:00,57.0,27.0,30.15,ESE,118,8.0,8.0,31,0.00,,,0.00,,2013-03-07 01:01:00,
2013-03-06 19:11:00,57.0,27.0,30.15,ESE,118,8.0,8.0,31,0.00,,,0.00,,2013-03-07 01:11:00,
2013-03-06 19:21:00,55.0,26.0,30.15,ESE,122,5.0,5.0,33,0.00,,,0.00,,2013-03-07 01:21:00,
2013-03-06 19:31:00,54.0,26.0,30.15,ESE,110,6.0,7.0,34,0.00,,,0.00,,2013-03-07 01:31:00,
2013-03-06 19:41:00,54.0,26.0,30.15,ESE,110,6.0,7.0,34,0.00,,,0.00,,2013-03-07 01:41:00,
2013-03-06 19:51:00,53.0,26.0,30.15,ESE,121,6.0,7.0,35,0.00,,,0.00,,2013-03-07 01:51:00,
2013-03-06 20:01:00,52.0,26.0,30.16,ESE,122,7.0,7.0,36,0.00,,,0.00,,2013-03-07 02:01:00,
2013-03-06 20:11:00,52.0,26.0,30.16,ESE,122,7.0,7.0,36,0.00,,,0.00,,2013-03-07 02:11:00,
2013-03-06 20:21:00,51.0,26.0,30.16,ESE,121,6.0,6.0,37,0.00,,,0.00,,2013-03-07 02:21:00,
2013-03-06 20:32:00,50.0,25.0,30.16,SE,128,6.0,6.0,37,0.00,,,0.00,,2013-03-07 02:32:00,
2013-03-06 20:41:00,50.0,25.0,30.16,SE,128,6.0,6.0,37,0.00,,,0.00,,2013-03-07 02:41:00,
2013-03-06 20:52:00,50.0,25.0,30.16,SE,128,6.0,6.0,37,0.00,,,0.00,,2013-03-07 02:52:00,
2013-03-06 21:01:00,46.0,24.0,30.18,South,174,5.0,5.0,42,0.00,,,0.00,,2013-03-07 03:01:00,
2013-03-06 21:11:00,45.0,24.0,30.18,SSE,162,6.0,6.0,43,0.00,,,0.00,,2013-03-07 03:11:00,
2013-03-06 21:21:00,45.0,24.0,30.18,SSE,162,6.0,6.0,43,0.00,,,0.00,,2013-03-07 03:21:00,
2013-03-06 21:32:00,45.0,24.0,30.19,SSE,153,7.0,7.0,43,0.00,,,0.00,,2013-03-07 03:32:00,
2013-03-06 21:42:00,45.0,24.0,30.19,SSE,153,7.0,7.0,43,0.00,,,0.00,,2013-03-07 03:42:00,
2013-03-06 21:52:00,45.0,24.0,30.19,SSE,150,6.0,7.0,44,0.00,,,0.00,,2013-03-07 03:52:00,
2013-03-06 22:01:00,44.0,24.0,30.19,SSE,162,6.0,6.0,45,0.00,,,0.00,,2013-03-07 04:01:00,
2013-03-06 22:11:00,44.0,24.0,30.19,SSE,162,6.0,6.0,45,0.00,,,0.00,,2013-03-07 04:11:00,
2013-03-06 22:21:00,43.0,24.0,30.19,South,177,6.0,6.0,47,0.00,,,0.00,,2013-03-07 04:21:00,
2013-03-06 22:31:00,41.0,23.0,30.19,SSE,158,5.0,5.0,48,0.00,,,0.00,,2013-03-07 04:31:00,
2013-03-06 22:42:00,41.0,23.0,30.19,SSE,158,5.0,5.0,48,0.00,,,0.00,,2013-03-07 04:42:00,
2013-03-06 22:51:00,40.0,23.0,30.19,SSE,165,5.0,5.0,50,0.00,,,0.00,,2013-03-07 04:51:00,
2013-03-06 23:02:00,40.0,23.0,30.19,SSE,156,5.0,5.0,51,0.00,,,0.00,,2013-03-07 05:02:00,
2013-03-06 23:12:00,40.0,23.0,30.19,SSE,156,5.0,5.0,51,0.00,,,0.00,,2013-03-07 05:12:00,
2013-03-06 23:22:00,40.0,24.0,30.19,SSE,162,5.0,5.0,52,0.00,,,0.00,,2013-03-07 05:22:00,
2013-03-06 23:32:00,39.0,24.0,30.19,SSE,167,5.0,6.0,54,0.00,,,0.00,,2013-03-07 05:32:00,
2013-03-06 23:42:00,39.0,24.0,30.19,SSE,167,5.0,6.0,54,0.00,,,0.00,,2013-03-07 05:42:00,
2013-03-06 23:52:00,38.0,22.0,30.19,SSE,156,2.0,2.0,53,0.00,,,0.00,,2013-03-07 05:52:00,